Waarnemingen

Advertentie
Mijn weer
St. Athan, Groot Brittannië (3716): temperatuur & dauwpunt: 18.09.2018 10:00:00 - 24.09.2018 10:00:00 (BST)St. Athan, Groot Brittannië (3716): temperatuur -20cm & temperatuur -100cm: 18.09.2018 10:00:00 - 24.09.2018 10:00:00 (BST)St. Athan, Groot Brittannië (3716): windsnelheid & windstoten: 18.09.2018 10:00:00 - 24.09.2018 10:00:00 (BST)St. Athan, Groot Brittannië (3716): windrichting: 18.09.2018 10:00:00 - 24.09.2018 10:00:00 (BST)St. Athan, Groot Brittannië (3716): luchtdruk: 18.09.2018 10:00:00 - 24.09.2018 10:00:00 (BST)St. Athan, Groot Brittannië (3716): zicht: 18.09.2018 10:00:00 - 24.09.2018 10:00:00 (BST)St. Athan, Groot Brittannië (3716): Zonneschijnduur: 18.09.2018 10:00:00 - 24.09.2018 10:00:00 (BST)St. Athan, Groot Brittannië (3716): neerslag: 18.09.2018 10:00:00 - 24.09.2018 10:00:00 (BST)
Datum & Tijd tt [°C] td [°C] tt -20cm [°C] tt -100cm [°C] ff [km/u] ff [kn] fx [km/u] fx [kn] dd ppp [hPa] vv [km] sd [min] rr [mm]
24.09.2018 10:00:00 10,8 6,3 14,5 15,7 9 5 - - NNO 1039,2 10 60 0,0
24.09.2018 09:00:00 8,6 5,7 - - 9 5 - - NNW 1038,6 10 60 0,0
24.09.2018 08:00:00 6,6 3,9 - - 9 5 - - NW 1037,9 30 30 0,0
24.09.2018 07:00:00 6,0 3,7 - - 9 5 - - N 1037,1 30 0 0,0
24.09.2018 06:00:00 6,4 3,9 - - 9 5 - - N 1036,9 40 0 0,0
24.09.2018 05:00:00 6,2 3,8 - - 8 4 - - N 1036,4 45 0 0,0
24.09.2018 04:00:00 5,9 3,7 - - 9 5 - - NNW 1036,2 50 0 0,0
24.09.2018 03:00:00 5,6 2,2 - - 5 3 - - NNW 1035,9 50 0 0,0
24.09.2018 02:00:00 7,6 4,3 - - 11 6 - - NNW 1035,3 50 0 0,0
24.09.2018 01:00:00 6,7 3,9 - - 5 3 - - WNW 1034,7 50 - 0,0
24.09.2018 00:00:00 7,2 3,5 - - 8 4 - - W 1033,8 50 0 0,0
23.09.2018 23:00:00 6,2 3,6 - - 2 1 - - WNW 1033,0 45 0 0,0
23.09.2018 22:00:00 9,2 4,2 - - 8 4 - - NW 1032,0 50 0 0,0
23.09.2018 21:00:00 9,3 4,5 - - 13 7 - - NW 1030,8 45 0 0,0
23.09.2018 20:00:00 9,9 4,7 - - 9 5 - - NW 1029,5 45 0 0,0
23.09.2018 19:00:00 11,1 3,7 - - 16 9 - - NW 1028,1 40 54 0,0
23.09.2018 18:00:00 12,3 4,2 - - 18 10 - - NW 1027,0 28 60 0,0
23.09.2018 17:00:00 12,6 4,2 - - 24 13 - - NW 1025,6 35 60 0,0
23.09.2018 16:00:00 13,5 3,6 - - 24 13 - - NW 1024,6 10 54 0,0
23.09.2018 15:00:00 13,7 4,9 - - 26 14 - - NNW 1023,7 10 54 0,0
23.09.2018 14:00:00 13,5 5,6 - - 21 11 - - NW 1022,4 10 54 0,0
23.09.2018 13:00:00 11,8 7,3 - - 9 5 - - NNW 1021,6 10 24 0,0
23.09.2018 12:00:00 11,1 7,5 - - 8 4 - - NO 1021,1 10 18 0,0
23.09.2018 11:00:00 9,0 6,9 - - 4 2 - - NNW 1020,2 10 0 0,0
23.09.2018 10:00:00 9,0 6,3 15,0 15,9 21 11 - - NNO 1018,5 10 0 0,2
23.09.2018 09:00:00 8,8 6,8 - - 21 11 - - N 1017,5 10 0 1,6
23.09.2018 08:00:00 8,9 8,1 - - 13 7 - - N 1016,0 16 0 2,2
23.09.2018 07:00:00 8,9 8,1 - - 18 10 - - NNO 1014,4 10 0 0,8
23.09.2018 06:00:00 9,1 8,5 - - 16 9 - - NO 1014,5 4,7 0 0,4
23.09.2018 05:00:00 9,4 8,7 - - 21 11 - - NO 1014,1 4,1 0 0,0
23.09.2018 04:00:00 9,8 8,9 - - 18 10 - - NO 1014,1 12 0 0,0
23.09.2018 03:00:00 10,2 9,0 - - 18 10 - - NO 1014,0 17 0 0,0
23.09.2018 02:00:00 10,3 9,0 - - 21 11 - - NO 1014,0 45 0 0,0
23.09.2018 01:00:00 10,2 9,3 - - 21 11 - - NO 1014,2 30 - 0,0
23.09.2018 00:00:00 10,3 9,3 - - 21 11 - - NO 1013,9 24 0 0,0
22.09.2018 23:00:00 10,2 9,2 - - 21 11 - - ONO 1013,7 35 0 0,0
22.09.2018 22:00:00 10,1 9,3 - - 24 13 - - ONO 1012,8 23 0 0,0
22.09.2018 21:00:00 10,0 9,4 - - 26 14 - - ONO 1012,8 13 0 0,0
22.09.2018 20:00:00 10,1 9,6 - - 26 14 - - ONO 1012,5 3,9 0 0,4
22.09.2018 19:00:00 10,1 9,6 - - 28 15 - - ONO 1012,3 3,1 0 0,6
22.09.2018 18:00:00 10,3 9,7 - - 28 15 - - ONO 1012,2 4,1 0 0,4
22.09.2018 17:00:00 10,2 9,7 - - 24 13 - - ONO 1012,7 4,0 0 1,0
22.09.2018 16:00:00 10,1 9,6 - - 26 14 - - O 1013,7 3,4 0 0,8
22.09.2018 15:00:00 10,1 9,3 - - 21 11 - - O 1014,9 3,5 0 1,2
22.09.2018 14:00:00 10,3 9,4 - - 16 9 - - O 1015,8 7 0 1,6
22.09.2018 13:00:00 10,6 9,4 - - 13 7 - - OZO 1017,1 10 0 1,4
22.09.2018 12:00:00 10,8 9,7 - - 5 3 - - OZO 1018,2 7 0 2,4
22.09.2018 11:00:00 10,9 8,9 - - 0 0 - - N 1018,8 7 0 1,6
22.09.2018 10:00:00 11,0 8,6 15,7 16,0 8 4 - - W 1019,0 10 0 0,8
22.09.2018 09:00:00 11,4 8,9 - - 21 11 - - WZW 1018,9 10 0 0,2
22.09.2018 08:00:00 10,8 8,8 - - 21 11 - - WZW 1019,1 12 0 0,8
22.09.2018 07:00:00 11,0 9,5 - - 5 3 - - N 1018,7 20 0 0,2
22.09.2018 06:00:00 10,5 9,2 - - 4 2 - - NNO 1018,4 25 0 0,0
22.09.2018 05:00:00 10,6 8,9 - - 8 4 - - NNW 1018,5 35 0 0,4
22.09.2018 04:00:00 11,3 8,7 - - 11 6 - - WNW 1018,8 22 0 1,4
22.09.2018 03:00:00 11,5 9,1 - - 8 4 - - NW 1018,8 23 0 0,0
22.09.2018 02:00:00 10,7 8,5 - - 5 3 - - NNW 1018,8 29 0 0,6
22.09.2018 01:00:00 11,6 9,5 - - 16 9 - - WNW 1018,9 6 - 1,0
22.09.2018 00:00:00 12,0 8,1 - - 15 8 - - NW 1018,4 40 0 0,0
21.09.2018 23:00:00 13,6 8,5 - - 24 13 - - W 1017,9 23 0 0,0
21.09.2018 22:00:00 13,8 9,0 - - 22 12 - - W 1017,6 20 0 0,0
21.09.2018 21:00:00 13,6 8,6 - - 26 14 - - W 1016,9 24 0 0,0
21.09.2018 20:00:00 13,7 8,6 - - 29 16 52 28 W 1016,2 18 0 0,0
21.09.2018 19:00:00 13,8 7,9 - - 39 21 61 33 W 1014,7 25 48 0,0
21.09.2018 18:00:00 14,3 7,9 - - 41 22 63 34 W 1014,0 35 60 0,0
21.09.2018 17:00:00 14,5 7,8 - - 41 22 68 37 W 1013,4 35 60 0,0
21.09.2018 16:00:00 14,8 8,3 - - 42 23 65 35 W 1013,1 26 54 0,0
21.09.2018 15:00:00 13,7 8,6 - - 41 22 68 37 W 1012,6 10 36 0,6
21.09.2018 14:00:00 13,0 9,5 - - 50 27 81 44 W 1011,7 10 30 0,6
21.09.2018 13:00:00 12,9 9,7 - - 46 25 81 44 W 1010,6 10 18 2,2
21.09.2018 12:00:00 12,6 8,0 - - 44 24 78 42 W 1010,0 10 18 0,0
21.09.2018 11:00:00 13,5 5,9 - - 42 23 67 36 W 1009,4 10 42 0,0
21.09.2018 10:00:00 11,9 5,2 16,2 16,0 39 21 63 34 W 1008,9 10 24 0,6
21.09.2018 09:00:00 11,4 6,9 - - 26 14 55 30 W 1008,1 10 18 0,4
21.09.2018 08:00:00 11,3 4,8 - - 35 19 59 32 W 1007,0 28 0 0,4
21.09.2018 07:00:00 10,6 6,5 - - 26 14 61 33 WNW 1006,1 35 0 1,0
21.09.2018 06:00:00 10,4 6,6 - - 28 15 - - WNW 1005,1 25 0 0,0
21.09.2018 05:00:00 9,2 5,8 - - 28 15 54 29 WNW 1004,3 45 0 0,0
21.09.2018 04:00:00 9,8 7,3 - - 37 20 61 33 WNW 1003,2 27 0 0,4
21.09.2018 03:00:00 10,6 9,0 - - 37 20 50 27 WNW 1001,5 6 0 0,4
21.09.2018 02:00:00 11,9 9,3 - - 31 17 65 35 W 999,7 19 0 0,0
21.09.2018 01:00:00 13,6 10,7 - - 48 26 80 43 W 998,2 13 - 0,0
21.09.2018 00:00:00 15,2 11,3 - - 50 27 81 44 WZW 997,2 13 0 0,6
20.09.2018 23:00:00 16,4 15,1 - - 41 22 61 33 WZW 995,9 5 0 6,0
20.09.2018 22:00:00 18,1 15,4 - - 39 21 61 33 ZZW 996,0 9 0 0,6
20.09.2018 21:00:00 17,7 16,0 - - 24 13 - - Z 997,5 9 0 1,8
20.09.2018 20:00:00 18,4 15,9 - - 22 12 - - ZZW 999,2 25 0 0,6
20.09.2018 19:00:00 17,9 15,7 - - 21 11 - - Z 1000,7 14 0 0,2
20.09.2018 18:00:00 18,6 15,5 - - 22 12 46 25 ZZW 1002,2 5 0 0,0
20.09.2018 17:00:00 18,5 15,6 - - 22 12 - - ZZW 1003,5 10 0 0,0
20.09.2018 16:00:00 18,3 15,9 - - 24 13 46 25 ZZW 1004,7 10 0 0,0
20.09.2018 15:00:00 18,5 16,0 - - 22 12 46 25 ZZW 1005,4 10 0 0,0
20.09.2018 14:00:00 18,5 15,8 - - 22 12 - - ZZW 1006,0 10 0 0,0
20.09.2018 13:00:00 17,9 15,8 - - 18 10 - - ZZW 1006,6 10 0 0,0
20.09.2018 12:00:00 17,9 15,8 - - 18 10 - - ZZW 1007,3 10 0 0,0
20.09.2018 11:00:00 14,9 14,8 - - 11 6 - - OZO 1008,3 10 0 1,0
20.09.2018 10:00:00 12,9 12,7 16,4 16,2 13 7 - - ONO 1009,2 4,0 0 3,2
20.09.2018 09:00:00 12,5 12,2 - - 9 5 - - NO 1009,9 5 0 2,8
20.09.2018 08:00:00 12,2 12,0 - - 5 3 - - O 1010,2 3,9 0 0,4
20.09.2018 07:00:00 11,9 11,7 - - 5 3 - - NO 1010,2 4,5 0 0,8
20.09.2018 06:00:00 11,8 11,5 - - 8 4 - - NNO 1010,4 7 0 2,0
20.09.2018 05:00:00 11,6 11,4 - - 8 4 - - NNO 1010,3 2,4 0 1,8
20.09.2018 04:00:00 11,5 11,2 - - 8 4 - - NNO 1011,0 3,2 0 1,6
20.09.2018 03:00:00 11,5 11,0 - - 8 4 - - N 1011,5 8 0 0,4
20.09.2018 02:00:00 12,0 11,6 - - 8 4 - - NW 1012,2 5 0 2,6
20.09.2018 01:00:00 12,4 11,9 - - 9 5 - - W 1012,7 2,4 - 0,6
20.09.2018 00:00:00 12,8 11,9 - - 13 7 - - W 1013,3 3,3 0 0,4
19.09.2018 23:00:00 13,0 11,6 - - 18 10 - - W 1013,7 6 0 0,2
19.09.2018 22:00:00 13,4 11,0 - - 21 11 - - W 1014,0 10 0 0,2
19.09.2018 21:00:00 14,1 9,8 - - 28 15 - - W 1013,3 13 0 0,4
19.09.2018 20:00:00 14,3 11,9 - - 26 14 - - WZW 1013,1 8 0 0,4
19.09.2018 19:00:00 14,8 10,9 - - 24 13 - - W 1013,0 9 0 0,0
19.09.2018 18:00:00 15,6 10,9 - - 28 15 46 25 W 1012,7 10 0 0,0
19.09.2018 17:00:00 15,4 11,7 - - 26 14 - - W 1012,2 7 0 0,0
19.09.2018 16:00:00 15,9 13,5 - - 24 13 50 27 W 1011,6 6 0 0,0
19.09.2018 15:00:00 15,7 13,8 - - 31 17 61 33 W 1010,9 5 0 0,2
19.09.2018 14:00:00 18,9 14,6 - - 44 24 70 38 WZW 1010,0 10 0 0,0
19.09.2018 13:00:00 19,0 13,4 - - 41 22 57 31 WZW 1009,6 10 0 0,0
19.09.2018 12:00:00 20,1 12,5 - - 41 22 59 32 WZW 1009,1 10 18 0,0
19.09.2018 11:00:00 19,6 12,8 - - 35 19 54 29 ZW 1008,9 10 60 0,0
19.09.2018 10:00:00 18,8 13,2 16,7 16,2 31 17 50 27 ZW 1008,8 10 54 0,0
19.09.2018 09:00:00 18,1 13,9 - - 28 15 50 27 ZW 1008,7 10 18 0,0
19.09.2018 08:00:00 17,3 13,3 - - 26 14 - - ZW 1008,9 10 6 0,0
19.09.2018 07:00:00 16,7 13,3 - - 18 10 - - ZZW 1008,8 14 0 0,0
19.09.2018 06:00:00 16,7 13,1 - - 18 10 - - ZZW 1009,3 15 0 0,0
19.09.2018 05:00:00 16,5 13,4 - - 16 9 - - ZW 1009,3 13 0 0,0
19.09.2018 04:00:00 16,6 13,3 - - 24 13 - - ZW 1009,4 16 0 0,0
19.09.2018 03:00:00 16,8 13,9 - - 21 11 - - ZW 1010,1 14 0 0,0
19.09.2018 02:00:00 16,6 13,7 - - 26 14 - - ZW 1010,1 15 0 0,0
19.09.2018 01:00:00 16,7 14,5 - - 21 11 - - WZW 1010,1 16 - 0,0
19.09.2018 00:00:00 16,9 14,8 - - 24 13 - - WZW 1010,1 16 0 0,2
18.09.2018 23:00:00 17,9 14,3 - - 26 14 - - ZW 1009,7 13 0 0,0
18.09.2018 22:00:00 18,0 14,2 - - 22 12 - - ZW 1009,8 16 0 0,0
18.09.2018 21:00:00 18,0 14,5 - - 18 10 - - ZZW 1009,7 15 0 0,0
18.09.2018 20:00:00 18,3 14,5 - - 22 12 - - ZZW 1009,3 16 0 0,0
18.09.2018 19:00:00 18,6 14,7 - - 24 13 - - ZW 1009,2 10 0 0,0
18.09.2018 18:00:00 19,0 14,9 - - 16 9 - - ZZW 1009,1 17 0 0,0
18.09.2018 17:00:00 18,9 15,3 - - 16 9 - - WZW 1009,2 10 0 0,0
18.09.2018 16:00:00 19,1 15,5 - - 22 12 - - WZW 1009,3 10 6 0,0
18.09.2018 15:00:00 18,5 15,6 - - 26 14 - - WZW 1009,3 10 0 0,0
18.09.2018 14:00:00 18,4 15,4 - - 29 16 46 25 WZW 1008,9 10 0 0,0
18.09.2018 13:00:00 18,1 15,2 - - 29 16 - - WZW 1008,5 10 0 0,0
18.09.2018 12:00:00 17,6 14,2 - - 28 15 50 27 WZW 1008,1 10 0 0,0
18.09.2018 11:00:00 17,2 13,5 - - 34 18 57 31 W 1007,7 10 0 0,0
18.09.2018 10:00:00 16,8 12,9 16,7 16,2 46 25 68 37 W 1006,4 10 6 0,0

tt = temperatuur
td = dauwpunt
tt -20cm = temperatuur -20cm
tt -100cm = temperatuur -100cm
ff = windsnelheid
fx = windstoten
dd = windrichting
ppp = luchtdruk
vv = zicht
sd = Zonneschijnduur
rr = neerslag

Weerstations in de omgeving